LIPQLIPZ

Guest
Details From LIPQ - Ronchi Dei Legionari
To LIPZ - Venezia Tessera
Flight Number -
Tags generated
Created
Modified
Stats Distance 51 nm / 95 km
Max Altitude 1,500 ft / 457 m
Waypoints 3
Social Downloads 1
Likes 0
Share VATSIM

Download

Looking for another format? Having issues loading an existing format? Contact us
Advertisement - Login to hide

Notes

Basic altitude profile: - Ascent Rate: 2500ft/min - Ascent Speed: 250kts - Cruise Altitude: 35000ft - Cruise Speed: 420kts - Descent Rate: 1500ft/min - Descent Speed: 250kts

Route

LIPQ RONNB LIPZ

ID Type Via Altitude Latitude Longitude Leg Dist Tot Dist Heading (true) Name
O LIPQ APT - 0 ft / 0 m 45.82786˚ 13.46666˚ - 0 nm - Ronchi Dei Legionari
RONNB FIX - 1,500 ft / 457 m 45.82816˚ 13.36069˚ 4 nm 4 nm 270° / 270° -
O LIPZ APT - 0 ft / 0 m 45.50479˚ 12.34969˚ 46 nm 51 nm 246° / 245° Venezia Tessera

Altitude Profile

Advertisement - Login to hide

LIPQ

Details ICAO LIPQ (TRS)
Name Ronchi Dei Legionari
Region Italy
Timezone Europe/Rome (UTC+2.0)
Stats Elevation 37 ft / 11 m (AMSL)
Location 45.827857° 13.466663°
Runways 1
Magnetic Variation 3.482° E

METAR

LIPQ 271920Z 21003KT 160V240 9999 -RA SCT060 BKN090 23/19 Q1018

Decode

TAF

TAF LIPQ 271700Z 2718/2818 04007KT 9999 SCT030 TEMPO 2718/2721 TSRA TEMPO 2812/2818 TSRA

Decode

Departure Runways

ID Width Length Bearing (true) Bearing (mag) Surface Threshold Offset Overrun Length
09 148 ft / 45 m 9,819 ft / 2,993 m 90.42° 86.94° Asphalt 823 ft / 251 m 0 ft / 0 m
27 148 ft / 45 m 9,819 ft / 2,993 m 270.44° 266.96° Asphalt 10 ft / 3 m 190 ft / 58 m

LIPZ

Details ICAO LIPZ (VCE)
Name Venezia Tessera
Region Italy
Timezone Europe/Rome (UTC+2.0)
Stats Elevation 7 ft / 2 m (AMSL)
Location 45.504791° 12.349691°
Runways 2
Magnetic Variation 3.231° E

METAR

LIPZ 271920Z 04005KT CAVOK 24/19 Q1017 NOSIG

Decode

TAF

TAF LIPZ 271700Z 2718/2824 VRB05KT 9999 FEW040 BECMG 2810/2812 14010KT TEMPO 2812/2818 TSRA BECMG 2817/2819 VRB05KT

Decode

Destination Runways

ID Width Length Bearing (true) Bearing (mag) Surface Threshold Offset Overrun Length
04L 148 ft / 45 m 9,112 ft / 2,777 m 42.01° 38.78° Asphalt 312 ft / 95 m 0 ft / 0 m
04R 148 ft / 45 m 10,834 ft / 3,302 m 41.99° 38.76° Asphalt 0 ft / 0 m 0 ft / 0 m
22L 148 ft / 45 m 10,834 ft / 3,302 m 222.01° 218.78° Asphalt 0 ft / 0 m 0 ft / 0 m
22R 148 ft / 45 m 9,112 ft / 2,777 m 222.02° 218.79° Asphalt 0 ft / 0 m 0 ft / 0 m

Approach Navaids

Runway Type Ident Frequency Range Bearing (true) Bearing (mag) Slope Elevation
04R Localiser VTS 109.95 MHz 18 nm / 33 km 42.02° 38.79° - 13 ft / 4 m (AMSL)
04R Glidescope VTS 109.95 MHz 10 nm / 19 km 42.00° 38.77° 3.00° 52 ft / 16 m (AMSL)
04R DME VTS 109.95 MHz 18 nm / 33 km - - - 26 ft / 8 m (AMSL)

Popular Alternatives